SRC3699 SKBO-SKAR

Flight info

Callsign SRC3699
Flight time 0h 27m
Altitude 18000
Route ISNOX2S ISNOX ISNOX1J
Aircraft C750/M-SBDE3FGHRWXY/S

Departure

Time 2026-05-05 02:07
Airport El Dorado International Airport (SKBO)

Arrival

Time 2026-05-05 02:35
Airport El Eden Airport (SKAR)
Time Latitude Longitude Altitude Speed Heading
2026-05-05 01:35 4.71044 -74.15299 8360 ft 0 kts 218°
2026-05-05 01:58 4.71043 -74.15299 8360 ft 0 kts 218°
2026-05-05 01:59 4.71037 -74.15313 8360 ft 2 kts 282°
2026-05-05 01:59 4.71050 -74.15331 8359 ft 3 kts 307°
2026-05-05 01:59 4.71065 -74.15340 8359 ft 2 kts
2026-05-05 02:00 4.71077 -74.15334 8359 ft 2 kts 43°
2026-05-05 02:00 4.71100 -74.15317 8359 ft 2 kts 36°
2026-05-05 02:00 4.71107 -74.15312 8359 ft 0 kts 37°
2026-05-05 02:03 4.71110 -74.15310 8359 ft 2 kts 38°
2026-05-05 02:04 4.71141 -74.15288 8359 ft 9 kts 18°
2026-05-05 02:04 4.71210 -74.15296 8358 ft 10 kts 11°
2026-05-05 02:04 4.71266 -74.15258 8358 ft 9 kts 42°
2026-05-05 02:04 4.71309 -74.15218 8359 ft 7 kts 45°
2026-05-05 02:05 4.71324 -74.15188 8360 ft 2 kts 116°
2026-05-05 02:05 4.71320 -74.15183 8360 ft 0 kts 128°
2026-05-05 02:06 4.71314 -74.15175 8360 ft 11 kts 128°
2026-05-05 02:06 4.71115 -74.14910 8363 ft 89 kts 126°
2026-05-05 02:07 4.70546 -74.14162 8366 ft 172 kts 126°
2026-05-05 02:07 4.69734 -74.13109 8603 ft 197 kts 128°
2026-05-05 02:07 4.68899 -74.12050 9304 ft 190 kts 128°
2026-05-05 02:07 4.67858 -74.11259 9839 ft 193 kts 167°
2026-05-05 02:08 4.66620 -74.11463 10531 ft 182 kts 215°
2026-05-05 02:08 4.65901 -74.12437 11231 ft 178 kts 247°
2026-05-05 02:08 4.65383 -74.13643 11679 ft 195 kts 244°
2026-05-05 02:08 4.64736 -74.14889 12125 ft 212 kts 240°
2026-05-05 02:09 4.64007 -74.16241 12557 ft 229 kts 240°
2026-05-05 02:09 4.63219 -74.17693 12985 ft 245 kts 240°
2026-05-05 02:09 4.62383 -74.19263 13366 ft 266 kts 240°
2026-05-05 02:09 4.61535 -74.20996 13771 ft 285 kts 252°
2026-05-05 02:10 4.61131 -74.22986 14201 ft 300 kts 260°
2026-05-05 02:10 4.60737 -74.25069 14639 ft 317 kts 259°
2026-05-05 02:10 4.60252 -74.27303 15009 ft 334 kts 251°
2026-05-05 02:10 4.59226 -74.29427 15401 ft 348 kts 241°
2026-05-05 02:11 4.58091 -74.31637 15765 ft 363 kts 242°
2026-05-05 02:11 4.56922 -74.33907 16129 ft 376 kts 242°
2026-05-05 02:11 4.55707 -74.36285 16485 ft 388 kts 242°
2026-05-05 02:11 4.54465 -74.38714 16832 ft 398 kts 242°
2026-05-05 02:12 4.53174 -74.41234 17192 ft 408 kts 242°
2026-05-05 02:12 4.50529 -74.46402 17784 ft 427 kts 242°
2026-05-05 02:12 4.49147 -74.49101 17788 ft 443 kts 242°
2026-05-05 02:13 4.47734 -74.51866 18172 ft 448 kts 242°
2026-05-05 02:13 4.46290 -74.54683 18172 ft 462 kts 242°
2026-05-05 02:13 4.44796 -74.57597 18189 ft 474 kts 242°
2026-05-05 02:13 4.43298 -74.60520 18148 ft 469 kts 242°
2026-05-05 02:14 4.41825 -74.63393 18135 ft 461 kts 242°
2026-05-05 02:14 4.40371 -74.66235 18117 ft 455 kts 242°
2026-05-05 02:14 4.38972 -74.69067 18063 ft 451 kts 246°
2026-05-05 02:14 4.37704 -74.71900 18043 ft 445 kts 238°
2026-05-05 02:15 4.36107 -74.74568 18080 ft 440 kts 242°
2026-05-05 02:15 4.34715 -74.77261 18074 ft 438 kts 241°
2026-05-05 02:15 4.33295 -74.79982 18036 ft 436 kts 242°
2026-05-05 02:15 4.31945 -74.82698 18017 ft 435 kts 247°
2026-05-05 02:16 4.31385 -74.85631 18029 ft 431 kts 271°
2026-05-05 02:16 4.31862 -74.88560 18065 ft 427 kts 285°
2026-05-05 02:16 4.32539 -74.91436 18025 ft 426 kts 283°
2026-05-05 02:16 4.33224 -74.94345 18054 ft 424 kts 284°
2026-05-05 02:17 4.33885 -74.97215 18039 ft 424 kts 284°
2026-05-05 02:17 4.34542 -75.00073 18021 ft 424 kts 283°
2026-05-05 02:17 4.35201 -75.02950 18041 ft 423 kts 283°
2026-05-05 02:17 4.35858 -75.05809 18057 ft 422 kts 283°
2026-05-05 02:18 4.36513 -75.08672 18059 ft 421 kts 283°
2026-05-05 02:18 4.37171 -75.11531 18075 ft 421 kts 283°
2026-05-05 02:18 4.37828 -75.14397 18085 ft 421 kts 283°
2026-05-05 02:18 4.38474 -75.17214 18100 ft 420 kts 284°
2026-05-05 02:19 4.39134 -75.20097 18121 ft 420 kts 284°
2026-05-05 02:19 4.39779 -75.22909 18147 ft 419 kts 284°
2026-05-05 02:19 4.40440 -75.25790 18183 ft 419 kts 284°
2026-05-05 02:19 4.41092 -75.28632 18217 ft 418 kts 283°
2026-05-05 02:20 4.41732 -75.31436 18232 ft 419 kts 283°
2026-05-05 02:20 4.42392 -75.34312 18257 ft 419 kts 283°
2026-05-05 02:20 4.43037 -75.37131 18305 ft 418 kts 283°
2026-05-05 02:20 4.43684 -75.39963 18340 ft 418 kts 283°
2026-05-05 02:21 4.44342 -75.42828 18382 ft 418 kts 283°
2026-05-05 02:21 4.44988 -75.45655 18425 ft 418 kts 283°
2026-05-05 02:21 4.45636 -75.48485 18399 ft 419 kts 283°
2026-05-05 02:21 4.46285 -75.51318 18392 ft 420 kts 283°
2026-05-05 02:22 4.46931 -75.54185 18372 ft 420 kts 282°
2026-05-05 02:22 4.46971 -75.57107 18338 ft 421 kts 259°
2026-05-05 02:22 4.46281 -75.59943 18339 ft 420 kts 257°
2026-05-05 02:22 4.45646 -75.62783 18284 ft 421 kts 256°
2026-05-05 02:23 4.44978 -75.65665 17889 ft 423 kts 257°
2026-05-05 02:23 4.44332 -75.68455 17418 ft 399 kts 257°
2026-05-05 02:23 4.43731 -75.71080 16940 ft 378 kts 256°
2026-05-05 02:23 4.43152 -75.73586 16471 ft 361 kts 257°
2026-05-05 02:24 4.42594 -75.76001 16004 ft 346 kts 257°
2026-05-05 02:24 4.42068 -75.78282 15542 ft 334 kts 256°
2026-05-05 02:24 4.41550 -75.80525 15083 ft 323 kts 257°
2026-05-05 02:24 4.41052 -75.82683 14604 ft 314 kts 257°
2026-05-05 02:25 4.40573 -75.84793 14095 ft 307 kts 259°
2026-05-05 02:25 4.40686 -75.86878 13545 ft 301 kts 289°
2026-05-05 02:25 4.41697 -75.88654 13050 ft 294 kts 306°
2026-05-05 02:25 4.42856 -75.90343 12486 ft 291 kts 305°
2026-05-05 02:26 4.43980 -75.91984 11927 ft 288 kts 307°
2026-05-05 02:26 4.45495 -75.93256 11355 ft 282 kts 339°
2026-05-05 02:26 4.47396 -75.93502 10823 ft 274 kts
2026-05-05 02:26 4.49109 -75.92766 10318 ft 268 kts 36°
2026-05-05 02:27 4.50633 -75.91725 9812 ft 266 kts 34°
2026-05-05 02:27 4.52160 -75.90694 9317 ft 265 kts 35°
2026-05-05 02:27 4.53673 -75.89664 9039 ft 255 kts 34°
2026-05-05 02:27 4.55101 -75.88689 8985 ft 242 kts 35°
2026-05-05 02:28 4.56468 -75.87758 8970 ft 230 kts 35°
2026-05-05 02:28 4.57793 -75.86845 8960 ft 227 kts 36°
2026-05-05 02:28 4.59076 -75.85963 8958 ft 223 kts 35°
2026-05-05 02:28 4.60358 -75.85082 8967 ft 218 kts 36°
2026-05-05 02:29 4.61599 -75.84227 8964 ft 215 kts 36°
2026-05-05 02:29 4.62830 -75.83381 8963 ft 212 kts 36°
2026-05-05 02:29 4.63999 -75.82490 8942 ft 209 kts 52°
2026-05-05 02:29 4.64433 -75.81171 8976 ft 201 kts 95°
2026-05-05 02:30 4.64133 -75.79777 8777 ft 211 kts 103°
2026-05-05 02:30 4.63795 -75.78320 8502 ft 219 kts 102°
2026-05-05 02:30 4.63438 -75.76812 8218 ft 226 kts 103°
2026-05-05 02:30 4.63066 -75.75264 7930 ft 231 kts 103°
2026-05-05 02:31 4.62465 -75.73771 7615 ft 231 kts 129°
2026-05-05 02:31 4.61121 -75.72969 7328 ft 226 kts 168°
2026-05-05 02:31 4.59596 -75.73128 7052 ft 222 kts 196°
2026-05-05 02:31 4.58111 -75.73532 6741 ft 219 kts 193°
2026-05-05 02:32 4.56641 -75.73947 6448 ft 213 kts 194°
2026-05-05 02:32 4.55283 -75.74279 6193 ft 190 kts 192°
2026-05-05 02:32 4.54042 -75.74573 5821 ft 172 kts 191°
2026-05-05 02:32 4.52950 -75.74814 5561 ft 155 kts 191°
2026-05-05 02:33 4.51899 -75.75048 5322 ft 153 kts 191°
2026-05-05 02:33 4.50837 -75.75275 5055 ft 154 kts 189°
2026-05-05 02:33 4.49798 -75.75506 4792 ft 155 kts 192°
2026-05-05 02:33 4.48746 -75.75768 4533 ft 155 kts 193°
2026-05-05 02:34 4.47701 -75.76022 4318 ft 150 kts 191°
2026-05-05 02:34 4.46695 -75.76263 4132 ft 147 kts 193°
2026-05-05 02:34 4.45702 -75.76509 4001 ft 141 kts 191°
2026-05-05 02:34 4.44855 -75.76709 3992 ft 98 kts 193°
2026-05-05 02:35 4.44342 -75.76833 3975 ft 65 kts 193°
2026-05-05 02:35 4.44163 -75.76882 3964 ft 9 kts 208°
2026-05-05 02:35 4.44168 -75.76869 3965 ft 3 kts
2026-05-05 02:35 4.44194 -75.76868 3966 ft 5 kts
2026-05-05 02:36 4.44246 -75.76856 3970 ft 11 kts 13°
2026-05-05 02:36 4.44347 -75.76833 3975 ft 18 kts 13°
2026-05-05 02:36 4.44506 -75.76794 3980 ft 27 kts 13°
2026-05-05 02:36 4.44691 -75.76749 3986 ft 25 kts 14°
2026-05-05 02:37 4.44848 -75.76712 3992 ft 21 kts 13°
2026-05-05 02:37 4.44987 -75.76678 3995 ft 19 kts 14°
2026-05-05 02:37 4.45110 -75.76649 3997 ft 17 kts 13°
2026-05-05 02:37 4.45200 -75.76649 3998 ft 11 kts 310°
2026-05-05 02:38 4.45233 -75.76700 3998 ft 6 kts 280°
2026-05-05 02:38 4.45219 -75.76736 3997 ft 5 kts 279°
2026-05-05 02:38 4.45226 -75.76766 3997 ft 0 kts 283°